User: anonymous   Login
Location: Obersdorf
(47.4079°N, 10.2781°E)
Time: 07:10:22
(UTC+01:00)
Language:

NOAA 19 - Orbit

View from above orbital plane
View from above orbital plane
View from above satellite
View from above satellite

Ground track
Ground track

The orbit data is extracted from the following two-line orbital elements,

1 33591U 09005A   21338.91104908  .00000053  00000-0  53757-4 0  9993
2 33591  99.1707   3.7423 0014144  18.1121 342.0551 14.12512511660727
Epoch (UTC): 04 December 2021 21:51:54
Eccentricity: 0.0014144
inclination: 99.1707°
perigee height: 840 km
apogee height: 861 km
right ascension of ascending node: 3.7423°
argument of perigee: 18.1121°
revolutions per day: 14.12512511
mean anomaly at epoch: 342.0551°
orbit number at epoch: 66072

The dashed part of the orbit path shows where the satellite is in the earth's shadow,  

DLR